TimeCDT,TemperatureF,Dew PointF,Humidity,Sea Level PressureIn,VisibilityMPH,Wind Direction,Wind SpeedMPH,Gust SpeedMPH,PrecipitationIn,Events,Conditions,WindDirDegrees,DateUTC
12:56 AM,57.0,57.0,100,30.08,10.0,Calm,Calm,-,0.00,Rain,Light Rain,0,2012-10-23 05:56:00
1:56 AM,55.0,54.0,96,30.07,7.0,Calm,Calm,-,0.00,,Clear,0,2012-10-23 06:56:00
2:56 AM,60.1,59.0,96,30.04,10.0,NE,3.5,-,0.00,,Clear,40,2012-10-23 07:56:00
3:56 AM,61.0,59.0,93,30.04,10.0,NNE,3.5,-,N/A,,Clear,20,2012-10-23 08:56:00
4:56 AM,61.0,59.0,93,30.05,10.0,North,4.6,-,N/A,,Mostly Cloudy,10,2012-10-23 09:56:00
5:56 AM,61.0,59.0,93,30.07,10.0,North,5.8,-,N/A,,Scattered Clouds,350,2012-10-23 10:56:00
6:56 AM,63.0,62.1,97,30.08,10.0,NE,4.6,-,N/A,,Mostly Cloudy,50,2012-10-23 11:56:00
7:56 AM,66.9,64.9,93,30.10,10.0,NE,6.9,-,N/A,,Mostly Cloudy,50,2012-10-23 12:56:00
8:56 AM,71.1,66.9,87,30.11,10.0,ENE,11.5,-,N/A,,Scattered Clouds,70,2012-10-23 13:56:00
9:56 AM,73.9,66.0,76,30.12,10.0,ENE,10.4,-,N/A,,Scattered Clouds,70,2012-10-23 14:56:00
10:56 AM,75.9,66.0,71,30.12,10.0,East,10.4,-,N/A,,Scattered Clouds,90,2012-10-23 15:56:00
11:56 AM,78.1,64.9,64,30.11,10.0,East,8.1,-,N/A,,Scattered Clouds,100,2012-10-23 16:56:00
12:56 PM,78.1,63.0,60,30.07,10.0,ESE,11.5,-,N/A,,Scattered Clouds,110,2012-10-23 17:56:00
1:56 PM,78.1,61.0,56,30.05,10.0,East,10.4,-,N/A,,Scattered Clouds,100,2012-10-23 18:56:00
2:56 PM,77.0,63.0,62,30.04,10.0,SE,10.4,-,N/A,,Scattered Clouds,130,2012-10-23 19:56:00
3:56 PM,77.0,63.0,62,30.04,10.0,ESE,10.4,-,N/A,,Scattered Clouds,110,2012-10-23 20:56:00
4:56 PM,75.0,63.0,66,30.04,10.0,ESE,9.2,-,N/A,,Scattered Clouds,120,2012-10-23 21:56:00
5:56 PM,73.0,61.0,66,30.05,10.0,SE,6.9,-,N/A,,Scattered Clouds,130,2012-10-23 22:56:00
6:56 PM,68.0,60.1,76,30.06,10.0,Calm,Calm,-,N/A,,Scattered Clouds,0,2012-10-23 23:56:00
7:56 PM,64.0,61.0,90,30.07,10.0,Calm,Calm,-,N/A,,Partly Cloudy,0,2012-10-24 00:56:00
8:56 PM,62.1,60.1,93,30.08,10.0,Calm,Calm,-,N/A,,Clear,0,2012-10-24 01:56:00
9:56 PM,61.0,60.1,97,30.08,10.0,Calm,Calm,-,N/A,,Clear,0,2012-10-24 02:56:00
10:56 PM,59.0,59.0,100,30.08,10.0,Calm,Calm,-,N/A,,Clear,0,2012-10-24 03:56:00
11:56 PM,57.9,57.9,100,30.07,9.0,Calm,Calm,-,N/A,,Clear,0,2012-10-24 04:56:00